Location: Étouvelles
(49.5207°N, 3.5808°E)
Time: 09:19:49
(UTC+00:00)

Cosmos 1850 Rocket - Pass Details

Date: 03 February 2023
Orbit: 753 x 785 km, 74.0° (Epoch: 23 March)

Event Time Altitude Azimuth Distance (km) Brightness Sun altitude
Rises 18:23:22 0° 179° (S) 3,203 7.3 -16.3°
Reaches altitude 10° 18:25:50 10° 173° (S) 2,279 6.4 -16.7°
Maximum altitude 18:30:38 41° 104° (ESE) 1,097 4.3 -17.4°
Enters shadow 18:32:45 28° 56° (NE) 1,410 4.9 -17.8°
